Time,TemperatureF,DewpointF,PressureIn,WindDirection,WindDirectionDegrees,WindSpeedMPH,WindSpeedGustMPH,Humidity,HourlyPrecipIn,Conditions,Clouds,dailyrainin,SolarRadiationWatts/m^2,SoftwareType,DateUTC
2013-07-12 00:01:00,72.0,70.0,-100.00,SW,225,0.0,0.0,95,0.00,,,0.00,0.000000,,2013-07-12 04:01:00,
2013-07-12 00:32:00,71.0,70.0,-100.00,SSW,213,0.0,0.0,97,0.00,,,0.00,0.000000,,2013-07-12 04:32:00,
2013-07-12 00:43:00,71.0,70.0,-100.00,SSW,213,0.0,0.0,97,0.00,,,0.00,0.000000,,2013-07-12 04:43:00,
2013-07-12 00:53:00,71.0,70.0,-100.00,SSW,213,0.0,0.0,97,0.00,,,0.00,0.000000,,2013-07-12 04:53:00,
2013-07-12 01:02:00,71.0,70.0,-100.00,SSW,213,0.0,0.0,97,0.00,,,0.00,0.000000,,2013-07-12 05:02:00,
2013-07-12 01:32:00,70.0,70.0,-100.00,SW,221,0.0,0.0,99,0.00,,,0.00,0.000000,,2013-07-12 05:32:00,
2013-07-12 01:43:00,70.0,70.0,-100.00,SW,221,0.0,0.0,99,0.00,,,0.00,0.000000,,2013-07-12 05:43:00,
2013-07-12 01:53:00,70.0,70.0,-100.00,SW,221,0.0,0.0,99,0.00,,,0.00,0.000000,,2013-07-12 05:53:00,
2013-07-12 02:01:00,70.0,70.0,-100.00,SW,221,0.0,0.0,99,0.00,,,0.00,0.000000,,2013-07-12 06:01:00,
2013-07-12 02:33:00,70.0,69.0,-100.00,WSW,255,0.0,0.0,98,0.00,,,0.00,0.000000,,2013-07-12 06:33:00,
2013-07-12 02:42:00,70.0,69.0,-100.00,WSW,255,0.0,0.0,98,0.00,,,0.00,0.000000,,2013-07-12 06:42:00,
2013-07-12 02:52:00,70.0,69.0,-100.00,WSW,255,0.0,0.0,98,0.00,,,0.00,0.000000,,2013-07-12 06:52:00,
2013-07-12 03:02:00,70.0,69.0,-100.00,WSW,255,0.0,0.0,98,0.00,,,0.00,0.000000,,2013-07-12 07:02:00,
2013-07-12 03:33:00,69.0,69.0,-100.00,SW,229,0.0,0.0,99,0.00,,,0.00,0.000000,,2013-07-12 07:33:00,
2013-07-12 03:43:00,69.0,69.0,-100.00,SW,229,0.0,0.0,99,0.00,,,0.00,0.000000,,2013-07-12 07:43:00,
2013-07-12 03:52:00,69.0,69.0,-100.00,SW,229,0.0,0.0,99,0.00,,,0.00,0.000000,,2013-07-12 07:52:00,
2013-07-12 04:01:00,69.0,69.0,-100.00,SW,229,0.0,0.0,99,0.00,,,0.00,0.000000,,2013-07-12 08:01:00,
2013-07-12 04:32:00,68.0,68.0,-100.00,WSW,240,0.0,0.0,100,0.00,,,0.00,0.000000,,2013-07-12 08:32:00,
2013-07-12 04:42:00,68.0,68.0,-100.00,WSW,240,0.0,0.0,100,0.00,,,0.00,0.000000,,2013-07-12 08:42:00,
2013-07-12 04:53:00,68.0,68.0,-100.00,WSW,240,0.0,0.0,100,0.00,,,0.00,0.000000,,2013-07-12 08:53:00,
2013-07-12 05:02:00,68.0,68.0,-100.00,WSW,240,0.0,0.0,100,0.00,,,0.00,0.000000,,2013-07-12 09:02:00,
2013-07-12 05:43:00,67.0,67.0,-100.00,West,266,0.0,0.0,100,0.00,,,0.00,0.000000,,2013-07-12 09:43:00,
2013-07-12 05:52:00,67.0,67.0,-100.00,West,266,0.0,0.0,100,0.00,,,0.00,0.000000,,2013-07-12 09:52:00,
2013-07-12 06:01:00,67.0,67.0,-100.00,West,266,0.0,0.0,100,0.00,,,0.00,0.000000,,2013-07-12 10:01:00,
2013-07-12 06:33:00,67.0,66.0,-100.00,WSW,254,0.0,0.0,97,0.00,,,0.00,0.000000,,2013-07-12 10:33:00,
2013-07-12 06:42:00,67.0,66.0,-100.00,WSW,254,0.0,0.0,97,0.00,,,0.00,0.000000,,2013-07-12 10:42:00,
2013-07-12 06:52:00,67.0,66.0,-100.00,WSW,254,0.0,0.0,97,0.00,,,0.00,0.000000,,2013-07-12 10:52:00,
2013-07-12 07:02:00,67.0,66.0,-100.00,WSW,254,0.0,0.0,97,0.00,,,0.00,0.000000,,2013-07-12 11:02:00,
2013-07-12 07:32:00,67.0,66.0,-100.00,SW,216,0.0,0.0,98,0.00,,,0.00,15.000000,,2013-07-12 11:32:00,
2013-07-12 07:43:00,67.0,66.0,-100.00,SW,216,0.0,0.0,98,0.00,,,0.00,15.000000,,2013-07-12 11:43:00,
2013-07-12 07:53:00,67.0,66.0,-100.00,SW,216,0.0,0.0,98,0.00,,,0.00,15.000000,,2013-07-12 11:53:00,
2013-07-12 08:02:00,67.0,66.0,-100.00,SW,216,0.0,0.0,98,0.00,,,0.00,15.000000,,2013-07-12 12:02:00,
2013-07-12 08:32:00,73.0,69.0,-100.00,East,87,0.0,0.0,86,0.00,,,0.00,128.000000,,2013-07-12 12:32:00,
2013-07-12 08:43:00,73.0,69.0,-100.00,East,87,0.0,0.0,86,0.00,,,0.00,128.000000,,2013-07-12 12:43:00,
2013-07-12 08:53:00,73.0,69.0,-100.00,East,87,0.0,0.0,86,0.00,,,0.00,128.000000,,2013-07-12 12:53:00,
2013-07-12 09:01:00,73.0,69.0,-100.00,East,87,0.0,0.0,86,0.00,,,0.00,128.000000,,2013-07-12 13:01:00,
2013-07-12 09:32:00,74.0,67.0,-100.00,ENE,63,0.0,0.0,79,0.00,,,0.00,240.000000,,2013-07-12 13:32:00,
2013-07-12 09:43:00,74.0,67.0,-100.00,ENE,63,0.0,0.0,79,0.00,,,0.00,240.000000,,2013-07-12 13:43:00,
2013-07-12 09:53:00,74.0,67.0,-100.00,ENE,63,0.0,0.0,79,0.00,,,0.00,240.000000,,2013-07-12 13:53:00,
2013-07-12 10:02:00,74.0,67.0,-100.00,ENE,63,0.0,0.0,79,0.00,,,0.00,240.000000,,2013-07-12 14:02:00,
2013-07-12 10:32:00,75.0,65.0,-100.00,ENE,58,0.0,0.0,72,0.00,,,0.00,272.000000,,2013-07-12 14:32:00,
2013-07-12 10:44:00,75.0,65.0,-100.00,ENE,58,0.0,0.0,72,0.00,,,0.00,272.000000,,2013-07-12 14:44:00,
2013-07-12 10:53:00,75.0,65.0,-100.00,ENE,58,0.0,0.0,72,0.00,,,0.00,272.000000,,2013-07-12 14:53:00,
2013-07-12 11:02:00,75.0,65.0,-100.00,ENE,58,0.0,0.0,72,0.00,,,0.00,272.000000,,2013-07-12 15:02:00,
2013-07-12 11:43:00,77.0,65.0,-100.00,NE,56,0.0,0.0,67,0.00,,,0.00,500.000000,,2013-07-12 15:43:00,
2013-07-12 11:53:00,77.0,65.0,-100.00,NE,56,0.0,0.0,67,0.00,,,0.00,500.000000,,2013-07-12 15:53:00,
2013-07-12 12:01:00,77.0,65.0,-100.00,NE,56,0.0,0.0,67,0.00,,,0.00,500.000000,,2013-07-12 16:01:00,
2013-07-12 12:05:00,80.0,66.0,-100.00,East,86,0.0,0.0,62,0.00,,,0.00,686.000000,,2013-07-12 16:05:00,
2013-07-12 12:32:00,80.0,66.0,-100.00,East,86,0.0,0.0,62,0.00,,,0.00,686.000000,,2013-07-12 16:32:00,
2013-07-12 12:43:00,80.0,66.0,-100.00,East,86,0.0,0.0,62,0.00,,,0.00,686.000000,,2013-07-12 16:43:00,
2013-07-12 12:58:00,80.0,66.0,-100.00,East,86,0.0,0.0,62,0.00,,,0.00,686.000000,,2013-07-12 16:58:00,
2013-07-12 13:05:00,80.0,65.0,-100.00,ENE,62,0.0,0.0,61,0.00,,,0.00,774.000000,,2013-07-12 17:05:00,
2013-07-12 13:40:00,80.0,65.0,-100.00,ENE,62,0.0,0.0,61,0.00,,,0.00,774.000000,,2013-07-12 17:40:00,
2013-07-12 13:47:00,80.0,65.0,-100.00,ENE,62,0.0,0.0,61,0.00,,,0.00,774.000000,,2013-07-12 17:47:00,
2013-07-12 13:56:00,80.0,65.0,-100.00,ENE,62,0.0,0.0,61,0.00,,,0.00,774.000000,,2013-07-12 17:56:00,
2013-07-12 14:05:00,83.0,65.0,-100.00,NE,55,0.0,0.0,55,0.00,,,0.00,856.000000,,2013-07-12 18:05:00,
2013-07-12 14:51:00,83.0,65.0,-100.00,NE,55,0.0,0.0,55,0.00,,,0.00,856.000000,,2013-07-12 18:51:00,
2013-07-12 15:48:00,82.0,64.0,-100.00,NE,38,0.0,0.0,55,0.00,,,0.00,499.000000,,2013-07-12 19:48:00,
2013-07-12 15:58:00,82.0,64.0,-100.00,NE,38,0.0,0.0,55,0.00,,,0.00,499.000000,,2013-07-12 19:58:00,
2013-07-12 16:04:00,82.0,64.0,-100.00,NE,38,0.0,0.0,55,0.00,,,0.00,499.000000,,2013-07-12 20:04:00,
2013-07-12 16:35:00,84.0,64.0,-100.00,NE,43,0.0,0.0,52,0.00,,,0.00,699.000000,,2013-07-12 20:35:00,
2013-07-12 16:47:00,84.0,64.0,-100.00,NE,43,0.0,0.0,52,0.00,,,0.00,699.000000,,2013-07-12 20:47:00,
2013-07-12 17:03:00,84.0,64.0,-100.00,NE,43,0.0,0.0,52,0.00,,,0.00,699.000000,,2013-07-12 21:03:00,
2013-07-12 17:36:00,83.0,64.0,-100.00,NE,49,0.0,0.0,52,0.00,,,0.00,574.000000,,2013-07-12 21:36:00,
2013-07-12 17:49:00,83.0,64.0,-100.00,NE,49,0.0,0.0,52,0.00,,,0.00,574.000000,,2013-07-12 21:49:00,
2013-07-12 17:59:00,83.0,64.0,-100.00,NE,49,0.0,0.0,52,0.00,,,0.00,574.000000,,2013-07-12 21:59:00,
2013-07-12 18:47:00,84.0,62.0,-100.00,NNE,14,0.0,0.0,47,0.00,,,0.00,444.000000,,2013-07-12 22:47:00,
2013-07-12 18:56:00,84.0,62.0,-100.00,NNE,14,0.0,0.0,47,0.00,,,0.00,444.000000,,2013-07-12 22:56:00,
2013-07-12 19:04:00,84.0,62.0,-100.00,NNE,14,0.0,0.0,47,0.00,,,0.00,444.000000,,2013-07-12 23:04:00,
2013-07-12 19:37:00,83.0,61.0,-100.00,NNE,17,0.0,0.0,48,0.00,,,0.00,294.000000,,2013-07-12 23:37:00,
2013-07-12 19:45:00,83.0,61.0,-100.00,NNE,17,0.0,0.0,48,0.00,,,0.00,294.000000,,2013-07-12 23:45:00,
2013-07-12 19:58:00,83.0,61.0,-100.00,NNE,17,0.0,0.0,48,0.00,,,0.00,294.000000,,2013-07-12 23:58:00,
2013-07-12 20:05:00,78.0,63.0,-100.00,North,360,0.0,0.0,61,0.00,,,0.00,79.000000,,2013-07-13 00:05:00,
2013-07-12 20:56:00,78.0,63.0,-100.00,North,360,0.0,0.0,61,0.00,,,0.00,79.000000,,2013-07-13 00:56:00,
2013-07-12 21:41:00,76.0,63.0,-100.00,North,358,0.0,0.0,65,0.00,,,0.00,15.000000,,2013-07-13 01:41:00,
2013-07-12 21:50:00,76.0,63.0,-100.00,North,358,0.0,0.0,65,0.00,,,0.00,15.000000,,2013-07-13 01:50:00,
2013-07-12 21:57:00,76.0,63.0,-100.00,North,358,0.0,0.0,65,0.00,,,0.00,15.000000,,2013-07-13 01:57:00,
2013-07-12 22:05:00,74.0,62.0,-100.00,NNE,24,0.0,0.0,66,0.00,,,0.00,0.000000,,2013-07-13 02:05:00,
2013-07-12 22:48:00,74.0,62.0,-100.00,NNE,24,0.0,0.0,66,0.00,,,0.00,0.000000,,2013-07-13 02:48:00,
2013-07-12 22:56:00,74.0,62.0,-100.00,NNE,24,0.0,0.0,66,0.00,,,0.00,0.000000,,2013-07-13 02:56:00,
2013-07-12 23:47:00,73.0,61.0,-100.00,ENE,60,0.0,0.0,67,0.00,,,0.00,0.000000,,2013-07-13 03:47:00,
2013-07-12 23:57:00,73.0,61.0,-100.00,ENE,60,0.0,0.0,67,0.00,,,0.00,0.000000,,2013-07-13 03:57:00,